Regional Weather Roundup
Issued by NWS

Home | Current Version | Previous Version | Graphics & Text | Print | Product List | Glossary On
Versions: 1 2 3 4 5 6 7 8 9 10 11 12 13 14 15 16 17 18 19 20 21 22 23 24 25 26 27 28 29 30 31 32 33 34 35 36 37 38 39 40 41 42 43 44 45 46 47 48 49 50
129
ASUS43 KMKX 061359
RWRWI

WISCONSIN REGIONAL WEATHER ROUNDUP
NATIONAL WEATHER SERVICE MILWAUKEE/SULLIVAN WI
800 AM CST SAT FEB 06 2016

NOTE: "FAIR" INDICATES FEW OR NO CLOUDS BELOW 12,000 FEET WITH NO
SIGNIFICANT WEATHER AND/OR OBSTRUCTIONS TO VISIBILITY.

WIZ001-002-006>008-014>016-023>028-061500-
NORTHWEST WISCONSIN

CITY           SKY/WX    TMP DP  RH WIND       PRES   REMARKS
SUPERIOR ARPT  CLOUDY    21  17  86 SW7       30.06F WCI  12
ASHLAND        CLOUDY    21  17  84 S5        30.07S WCI  15
HAYWARD        CLOUDY    23  18  81 SW7       30.07S WCI  15
SIREN          CLOUDY    24  20  87 SW7       30.09S FOG     WCI  15
CUMBERLAND     CLOUDY    23  21  93 SW10      30.08F FOG     WCI  12
RICE LAKE      CLOUDY    24  21  85 SW6       30.12S WCI  17
CHETEK         CLOUDY    24  20  86 CALM      30.11S
LADYSMITH      CLOUDY    24  22  95 S5        30.11F FOG     WCI  18
EAU CLAIRE     NOT AVBL
MENOMONIE      CLOUDY    27  22  82 SW7       30.14S WCI  19
NEW RICHMOND   CLOUDY    24  20  86 SW8       30.11F WCI  15
OSCEOLA        CLOUDY    25  22  89 S6        30.14S WCI  18
$$

WIZ003>005-009-010-017-018-061500-
NORTH CENTRAL WISCONSIN

CITY           SKY/WX    TMP DP  RH WIND       PRES   REMARKS
MANITOWISH WTR CLOUDY    20  19  96 SW6       30.03S WCI  13
ARBOR VITAE    CLOUDY    22  19  90 W7        30.04S FOG     WCI  13
WOODRUFF       CLOUDY    22  19  90 W7        30.04S FOG     WCI  13
RHINELANDER    CLOUDY    21  18  88 W12       30.06S WCI   9
EAGLE RIVER    CLOUDY    21  19  92 W7        30.04S WCI  12
LAND O LAKES   CLOUDY    21  19  91 SW7       30.03S WCI  13
PHILLIPS       CLOUDY    21  20  95 SW6       30.06S WCI  13
TOMAHAWK       CLOUDY    22  19  91 CALM      30.08S
MEDFORD        CLOUDY    22  21  96 W7G17     30.08S FOG     WCI  13
MERRILL        CLOUDY    23  21  93 W8        30.11R WCI  14
$$

WIZ029-030-035-036-043>047-061500-
CENTRAL WISCONSIN

CITY           SKY/WX    TMP DP  RH WIND       PRES   REMARKS
WAUSAU         CLOUDY    25  21  85 W12       30.10S WCI  14
MOSINEE        CLOUDY    23  23 100 W12       30.13R FOG     WCI  12
MARSHFIELD     CLOUDY    25  21  85 W10       30.11S FOG     WCI  15
STEVENS POINT  CLOUDY    23  21  92 W6        30.14S FOG     WCI  15
WAUPACA        CLOUDY    28  23  81 W10       30.16S WCI  19
WAUTOMA        NOT AVBL
WISC RAPIDS    CLOUDY    25  21  85 W7        30.17R FOG     WCI  17
CAMP DOUGLAS   MIX PCPN  27  27 100 W10       30.17R WCI  17
$$

WIZ011>013-019>022-031-037>040-048>050-061500-
NORTHEAST WISCONSIN

CITY           SKY/WX    TMP DP  RH WIND       PRES   REMARKS
ANTIGO         CLOUDY    21  20  96 W7        30.08S FOG     WCI  13
SHAWANO        CLOUDY    27  22  82 W6        30.15R WCI  20
OCONTO         CLOUDY    25  22  86 W8        30.15S WCI  17
STURGEON BAY   CLOUDY    25  18  74 W12       30.16S WCI  14
GREEN BAY      CLOUDY    26  21  81 SW7       30.16S WCI  18
MANITOWOC      NOT AVBL
APPLETON       NOT AVBL
CLINTONVILLE   CLOUDY    27  21  80 W9        30.15S WCI  17
OSHKOSH        CLOUDY    27  20  75 SW6       30.16F WCI  20
$$

WIZ032>034-041-042-053>061-061500-
SOUTHWEST WISCONSIN

CITY           SKY/WX    TMP DP  RH WIND       PRES   REMARKS
LA CROSSE      CLOUDY    28  24  85 SW8       30.18S WCI  20
SPARTA         CLOUDY    27  25  92 W6        30.19R WCI  20
VIROQUA        CLOUDY    26  26 100 W10G17    30.17R WCI  17
BOSCOBEL       CLOUDY    29  27  92 SW6       30.22S WCI  23
PRAIRIE DU CHI CLOUDY    29  25  84 SW3       30.21F
PLATTEVILLE    CLOUDY    28  25  88 SW8       30.20S WCI  20
$$

WIZ056-057-062-063-064-067-068-061500-
SOUTH CENTRAL WISCONSIN

CITY           SKY/WX    TMP DP  RH WIND       PRES   REMARKS
REEDSBURG      CLOUDY    27  23  87 SW7       30.18F WCI  19
BARABOO/DELLS  CLOUDY    27  22  82 SW8       30.17F WCI  18
LONE ROCK      NOT AVBL
MINERAL POINT  CLOUDY    30  27  86 SW7       30.18F WCI  23
MADISON        CLOUDY    27  21  78 VRB6      30.20S WCI  20
MIDDLETON      CLOUDY    29  23  78 SW7       30.20S WCI  22
WATERTOWN      CLOUDY    27  23  84 SW7       30.20S WCI  20
MONROE         CLOUDY    28  25  86 SW13      30.21R WCI  18
JANESVILLE     CLOUDY    28  25  86 SW6       30.23R WCI  22
$$

WIZ051-052-058>065-066-070>072-061500-
SOUTHEAST WISCONSIN

CITY           SKY/WX    TMP DP  RH WIND       PRES   REMARKS
MILWAUKEE      MOCLDY    28  21  75 SW10      30.23R WCI  19
WAUKESHA       CLOUDY    27  19  74 W3        30.22R
MILWAUKEE/TIMM CLOUDY    28  19  69 SW10      30.23R WCI  19
RACINE         CLOUDY    28  21  75 SW8       30.24S WCI  20
BURLINGTON     PTCLDY    23  20  87 SW5       30.23R WCI  17
KENOSHA        MOCLDY    26  21  81 SW10      30.24R HAZE    WCI  16
FOND DU LAC    CLOUDY    28  20  71 SW10      30.17F WCI  19
SHEBOYGAN      CLOUDY    28  21  75 SW16      30.17F WCI  16
WEST BEND      CLOUDY    28  21  74 SW9       30.19S WCI  20
JUNEAU         CLOUDY    27  21  80 SW10      30.21S WCI  17
$$

LSZ147-162-061500-
LAKE SUPERIOR

STATION/POSITION TIME  TEMP    WIND        PRES    WAVE
                       AIR SEA DIR/SP/G            HT/PER
                 (UTC) (F)     (DEG/KT/KT) (MB)    (FT/S)
DEVILS ISLAND    1300   27     240/ 18/ 21 1018.4R
SAXON HARBOR     1200   24                 1017.9
$$

LMZ867-665-643>646-061500-
LAKE MICHIGAN

STATION/POSITION TIME  TEMP    WIND        PRES    WAVE
                       AIR SEA DIR/SP/G            HT/PER
                 (UTC) (F)     (DEG/KT/KT) (MB)    (FT/S)
CHAMBERS ISLAND  1300   26     220/  9/ 14 1020.3R
ALGOMA LAKESHORE 1211          270/ 12/ 19   N/A
KEWAUNEE LAKESHO 1300   27     260/ 12/ 16 1020.3R
SHEBOYGAN LAKESH 1300   29     240/ 11/ 12 1023.2S
PORT WASHINGTON  1300   29     250/  6/ 12 1023.4
MILWAUKEE LAKESH 1310   28     230/ 10/ 12   N/A
KENOSHA   LAKESH 1300   27     220/ 10/ 13 1023.7S
$$

TC  - TEMPERATURE IN CELSIUS
VSB - VISIBILITY IN STATUTE MILES
WCI - WIND CHILL INDEX
HX  - HEAT INDEX





USA.gov is the U.S. government's official web portal to all federal, state and local government web resources and services.